x

Boston 16 Nm East Of Boston, Ma (44013) Wave Buoy

6:50 - Thu 25th Dec 2014 All times are EST. -5 hours from GMT.

  • Sig Wave height 3.3ft
  • Swell Direction
  • Peak Period 4s
  • Average Period 4s
  • Wind
    22mph, 29mph gusts
  • Sea Temp 44°f
  • Air Temp 47°f
  • Sea Pressure 1009.6mb
  • Boston 16 Nm East Of Boston, Ma
  • Boston 16 Nm East Of Boston, Ma

More Historic Weather Station data

Upgrade to MSW Pro to gain access to the past 30 days of data for over 8000 Wavebouys and Weather Stations around the globe.

Join Pro

Comparision Forecast

View Surf forecast
   
jeu. 12/25 6:50 3.5ft 4s 4s 22 29 mph 1009.6mb 44f 47f
5:50 3.5ft 4s 4s 22 31 mph 1008.2mb 44f 47f
4:50 4.5ft 5s 4s 22 29 mph 1007mb 44f 47f
3:50 3.5ft 4s 4s 31 38 mph 1004.9mb 44f 49f
2:50 3.5ft 4s 4s 22 27 mph 1003.8mb 44f 49f
1:50 3.5ft 4s 4s 20 27 mph 1002.4mb 44f 49f
12:50 3ft 7s 4s 13 16 mph 1001.4mb 44f 48f
11:50 3.5ft 7s 5s 16 20 mph 1000.8mb 44f 48f
10:50 3.5ft 6s 5s 20 29 mph 1000.5mb 45f 51f
9:50 3.5ft 7s 5s 20 25 mph 1000.4mb 45f 53f
8:50 3.5ft 7s 5s 16 18 mph 999mb 45f 53f
7:50 3.5ft 8s 5s 16 18 mph 999.2mb 45f 51f
6:50 3.5ft 8s 5s 16 18 mph 1000.3mb 44f 52f
5:50 3.5ft 7s 5s 13 18 mph 999mb 44f 53f
4:50 4ft 8s 5s 13 16 mph 998.8mb 44f 54f
3:50 4.5ft 8s 5s 11
mph
999.3mb 45f 52f
2:50 4.5ft 5s 5s 13 18 mph 1000mb 45f 52f
1:50 5ft 8s 5s 7 9 mph 1000.5mb 45f 48f
12:50 5ft 8s 5s 18 22 mph 999.1mb 45f 56f
mer. 12/24 11:50 5ft 7s 5s 13 18 mph 1000.9mb 44f 52f
10:50 5ft 8s 5s 16 18 mph 1001.5mb 44f 53f
9:50 4.5ft 7s 6s 18 20 mph 1003mb 44f 53f
8:50 4.5ft 8s 6s 7 9 mph 1004.7mb 44f 47f
7:50 5ft 8s 6s 4 7 mph 1006.6mb 44f 46f
6:50 4.5ft 8s 6s 7
mph
1007.4mb 44f 47f
5:50 4.5ft 7s 6s 4 7 mph 1008.4mb 45f 46f
4:50 5ft 8s 6s 2 4 mph 1009.3mb 45f 46f
3:50 4.5ft 8s 6s 7 9 mph 1010.4mb 45f 46f
2:50 5ft 8s 6s 7 9 mph 1011.3mb 45f 46f
1:50 4.5ft 9s 6s 9 11 mph 1012.1mb 45f 46f
12:50 5ft 8s 6s 9
mph
1013.5mb 45f 46f
11:50 5.5ft 8s 6s 9
mph
1014.6mb 45f 46f
10:50 5.5ft 8s 6s 9
mph
1016.2mb 45f 46f
9:50 7ft 9s 6s 9 11 mph 1017.5mb 45f 46f
8:50 6.5ft 8s 6s 11 13 mph 1017.9mb 45f 46f
7:50 7ft 8s 6s 13 16 mph 1018.4mb 45f 45f
6:50 7ft 7s 6s 16 18 mph 1018.8mb 45f 46f
5:50 7ft 8s 6s 16 20 mph 1019.2mb 45f 46f
4:50 6ft 8s 6s 13 18 mph 1019.1mb 45f 46f
3:50 7ft 8s 6s 11 16 mph 1019.8mb 45f 46f
2:50 6ft 8s 6s 13 18 mph 1019.7mb 45f 46f
1:50 6ft 9s 6s 16 18 mph 1019.2mb 45f 46f
12:50 6ft 8s 6s 11 16 mph 1019.8mb 45f 46f
mar. 12/23 11:50 6.5ft 8s 6s 11 13 mph 1020.7mb 45f 46f
10:50 6.5ft 7s 6s 11 16 mph 1020.9mb 45f 46f
9:50 7ft 8s 6s 16 18 mph 1021mb 45f 46f
8:50 7ft 7s 6s 18 20 mph 1021.1mb 45f 46f
7:50 7ft 8s 6s 16 18 mph 1021.7mb 45f 46f
6:50 7.5ft 8s 6s 13 18 mph 1021.9mb 45f 46f
5:50 7ft 8s 6s 16 20 mph 1021.4mb 45f 46f
4:50 6.5ft 9s 6s 16 18 mph 1021.5mb 45f 46f
3:50 7.5ft 8s 6s 16 20 mph 1021.9mb 45f 46f
2:50 7ft 8s 6s 18 22 mph 1021.2mb 46f 45f
1:50 8ft 9s 6s 20 25 mph 1021.1mb 46f 45f
12:50 7.5ft 8s 6s 22 27 mph 1021.2mb 46f 45f
11:50 7.5ft 8s 5s 22 27 mph 1022mb 46f 45f
10:50 7.5ft 8s 6s 25 29 mph 1023.2mb 46f 44f
9:50 8ft 8s 5s 25 31 mph 1023.9mb 45f 44f
8:50 7ft 7s 5s 25 29 mph 1024.5mb 45f 44f
7:50 7ft 7s 5s 22 25 mph 1024.8mb 45f 44f
6:50 6.5ft 6s 5s 16 20 mph 1025.8mb 45f 44f
5:50 6ft 8s 5s 16 20 mph 1025.2mb 46f 44f
4:50 6ft 8s 5s 25 31 mph 1022.5mb 46f 44f
3:50 5ft 8s 5s 20 22 mph 1024.3mb 46f 44f
2:50 4.5ft 7s 5s 18 20 mph 1025mb 45f 44f
1:50 4.5ft 8s 5s 18 20 mph 1025.3mb 46f 44f
12:50 4.5ft 7s 5s 18 20 mph 1024.9mb 46f 44f
lun. 12/22 11:50 4.5ft 7s 5s 13 16 mph 1025.9mb 46f 44f
10:50 4.5ft 7s 5s 16 18 mph 1026.3mb 46f 44f
9:50 5ft 6s 5s 18 20 mph 1026.5mb 46f 44f
8:50 4.5ft 8s 5s 16 18 mph 1026.9mb 46f 44f
7:50 4.5ft 8s 4s 20 25 mph 1026.8mb 46f 44f
6:50 4ft 7s 5s 18 20 mph 1027mb 46f 44f
5:50 3.5ft 8s 5s 13 18 mph 1027.1mb 46f 44f
4:50 3.5ft 7s 5s 9 13 mph 1027.3mb 46f 43f
3:50 3.5ft 7s 5s 9 11 mph 1026.8mb 46f 44f
2:50 3ft 8s 5s 9 11 mph 1026.9mb 46f 44f
1:50 3.5ft 8s 5s 7
mph
1027.4mb 46f 43f
12:50 3.5ft 7s 5s 7 11 mph 1027.2mb 46f 43f
11:50 3.5ft 7s 5s 13 18 mph 1027mb 46f 43f
10:50 3.5ft 7s 5s 7 9 mph 1028.3mb 46f 43f
9:50 3.5ft 8s 5s 9 11 mph 1028.7mb 46f 42f
8:50 4ft 8s 4s 16 20 mph 1028.4mb 46f 41f
7:50 4ft 8s 4s 18 20 mph 1028.3mb 46f 40f
6:50 4ft 6s 4s 18 22 mph 1028.3mb 46f 40f
5:50 3.5ft 5s 4s 20 22 mph 1027.7mb 46f 40f
4:50 3.5ft 7s 4s 18 22 mph 1027.5mb 46f 39f
3:50 3.5ft 7s 4s 18 20 mph 1027.3mb 46f 39f
2:50 3.5ft 7s 4s 18 20 mph 1027.6mb 46f 39f
1:50 3.5ft 8s 4s 18 20 mph 1027.6mb 46f 40f